Location: Campolattaro
(41.2833°N, 14.7333°E)
Time: 00:34:41
(UTC+00:00)

Cosmos 2360 Rocket - Pass Details

Date: 19 May 2025
Orbit: 834 x 842 km, 71.0° (Epoch: 22 June)

Event Time Altitude Azimuth Distance (km) Brightness Sun altitude
Rises 21:28:22 0° 349° (N) 3,390 6.6 -25.3°
Reaches altitude 10° 21:31:49 10° 10° (N) 2,452 5.3 -25.6°
Maximum altitude 21:35:15 16° 48° (NE) 2,042 4.4 -25.8°
Enters shadow 21:37:52 12° 79° (ENE) 2,287 4.3 -26.0°
